カタログに戻る

YAOGAN-39 02A

運用中軍事VLEO
NORAD 57886·PAYLOAD·🇨🇳 China

打ち上げ Sep 17, 2023 から Xichang Satellite Launch Center

Loading…

次のパス (今後24時間)

TLE

最新Source: Space-Track

元期: Sep 14, 2026, 14:39 UTC

1 57886U 23145A   26257.61096046  .00008026  00000-0  33356-3 0  9992
2 57886  35.0052 358.0897 0002061  40.1134 319.9733 15.23080386166816

AllMySatでYAOGAN-39 02Aをリアルタイム追跡

Download on the App Store